When you browse on this site, cookies collect data to enhance your experience and personalize the content and advertising you see.
Visit our Privacy Policy to learn more. By continuing to use the site, you agree to this use of cookies and data.
  • în România
  • Lista ţărilor
  • Pe 7 zile
  • Temperatura apei
  • Meteo pe hartă
  • Widget-uri
  • user-avatar
    Intrare

    Meteo pe oră la Auckland

    Astăzi, 5 Iunie, Vineri

    Timp Temperatura Precipitaţii Vânt Presiune Umiditate
    00:00 +14°C° 0 mm 7 m/s 753 mmHg 81%
    01:00 +14°C° 0.1 mm 7 m/s 752 mmHg 82%
    02:00 +14°C° 0.1 mm 7 m/s 752 mmHg 82%
    03:00 +12°C° 0.1 mm 7 m/s 752 mmHg 83%
    04:00 +12°C° 0.1 mm 7 m/s 752 mmHg 84%
    05:00 +13°C° 0.1 mm 6 m/s 752 mmHg 85%
    06:00 +13°C° 0 mm 6 m/s 751 mmHg 84%
    07:00 +12°C° 0.1 mm 7 m/s 751 mmHg 84%
    08:00 +12°C° 0.1 mm 7 m/s 751 mmHg 83%
    09:00 +12°C° 0.1 mm 7 m/s 751 mmHg 83%
    10:00 +14°C° 0.4 mm 7 m/s 751 mmHg 82%
    11:00 +14°C° 0.4 mm 7 m/s 750 mmHg 82%
    12:00 +15°C° 0 mm 6 m/s 750 mmHg 77%
    13:00 +15°C° 0.7 mm 6 m/s 750 mmHg 79%
    14:00 +15°C° 0.7 mm 6 m/s 749 mmHg 80%
    15:00 +15°C° 0.7 mm 6 m/s 749 mmHg 81%
    16:00 +15°C° 0.5 mm 5 m/s 749 mmHg 83%
    17:00 +14°C° 0.5 mm 5 m/s 749 mmHg 85%
    18:00 +14°C° 0.5 mm 4 m/s 749 mmHg 86%
    19:00 +14°C° 0.1 mm 4 m/s 750 mmHg 88%
    20:00 +13°C° 0.1 mm 5 m/s 751 mmHg 89%
    21:00 +13°C° 0.1 mm 5 m/s 752 mmHg 90%
    22:00 +13°C° 0 mm 5 m/s 752 mmHg 90%
    23:00 +13°C° 0 mm 5 m/s 752 mmHg 90%

    Mâine, 6 Iunie, Sâmbătă

    Timp Temperatura Precipitaţii Vânt Presiune Umiditate
    00:00 +13°C° 0 mm 6 m/s 753 mmHg 90%
    01:00 +13°C° 0 mm 6 m/s 753 mmHg 88%
    02:00 +12°C° 0 mm 7 m/s 754 mmHg 86%
    03:00 +12°C° 0 mm 7 m/s 755 mmHg 84%
    04:00 +12°C° 0 mm 7 m/s 755 mmHg 83%
    05:00 +12°C° 0 mm 7 m/s 755 mmHg 83%
    06:00 +13°C° 0 mm 6 m/s 755 mmHg 82%
    07:00 +13°C° 0.1 mm 6 m/s 756 mmHg 82%
    08:00 +12°C° 0.1 mm 7 m/s 756 mmHg 81%
    09:00 +14°C° 0.1 mm 7 m/s 757 mmHg 80%
    10:00 +14°C° 0 mm 7 m/s 757 mmHg 76%
    11:00 +15°C° 0 mm 7 m/s 757 mmHg 72%
    12:00 +15°C° 0 mm 8 m/s 757 mmHg 69%
    13:00 +15°C° 0.1 mm 7 m/s 757 mmHg 70%
    14:00 +15°C° 0.1 mm 7 m/s 756 mmHg 71%
    15:00 +15°C° 0.1 mm 7 m/s 756 mmHg 72%
    16:00 +15°C° 0.1 mm 7 m/s 757 mmHg 72%
    17:00 +14°C° 0.1 mm 7 m/s 757 mmHg 71%
    18:00 +14°C° 0.1 mm 7 m/s 757 mmHg 71%
    19:00 +14°C° 0.1 mm 6 m/s 758 mmHg 72%
    20:00 +14°C° 0.1 mm 6 m/s 758 mmHg 72%
    21:00 +14°C° 0.1 mm 6 m/s 758 mmHg 73%
    22:00 +14°C° 0.1 mm 6 m/s 758 mmHg 73%
    23:00 +14°C° 0.1 mm 6 m/s 758 mmHg 74%

    Poimâine, 7 Iunie, Duminică

    Timp Temperatura Precipitaţii Vânt Presiune Umiditate
    00:00 +14°C° 0.1 mm 6 m/s 759 mmHg 74%
    01:00 +14°C° 0.2 mm 6 m/s 759 mmHg 77%
    02:00 +13°C° 0.2 mm 6 m/s 759 mmHg 80%
    03:00 +13°C° 0.2 mm 5 m/s 759 mmHg 83%
    04:00 +13°C° 0.1 mm 6 m/s 759 mmHg 83%
    05:00 +13°C° 0.1 mm 6 m/s 759 mmHg 83%
    06:00 +12°C° 0.1 mm 7 m/s 760 mmHg 84%
    07:00 +11°C° 0.1 mm 7 m/s 760 mmHg 79%
    08:00 +11°C° 0.1 mm 7 m/s 761 mmHg 75%
    09:00 +11°C° 0.1 mm 7 m/s 761 mmHg 70%
    10:00 +11°C° 0 mm 7 m/s 762 mmHg 68%
    11:00 +12°C° 0 mm 7 m/s 762 mmHg 65%
    12:00 +12°C° 0 mm 7 m/s 762 mmHg 63%
    13:00 +12°C° 0 mm 7 m/s 762 mmHg 63%
    14:00 +11°C° 0 mm 7 m/s 762 mmHg 64%
    15:00 +11°C° 0 mm 8 m/s 762 mmHg 64%
    16:00 +11°C° 0 mm 8 m/s 762 mmHg 65%
    17:00 +11°C° 0 mm 7 m/s 762 mmHg 65%
    18:00 +11°C° 0 mm 7 m/s 763 mmHg 66%
    19:00 +11°C° 0 mm 7 m/s 763 mmHg 67%
    20:00 +11°C° 0 mm 7 m/s 763 mmHg 68%
    21:00 +11°C° 0 mm 7 m/s 764 mmHg 69%
    22:00 +11°C° 0 mm 7 m/s 764 mmHg 69%
    23:00 +11°C° 0 mm 7 m/s 764 mmHg 68%

    8 Iunie, Luni

    Timp Temperatura Precipitaţii Vânt Presiune Umiditate
    00:00 +11°C° 0 mm 7 m/s 764 mmHg 67%
    01:00 +11°C° 0 mm 6 m/s 764 mmHg 68%
    02:00 +10°C° 0 mm 6 m/s 764 mmHg 69%
    03:00 +10°C° 0 mm 5 m/s 764 mmHg 70%
    04:00 +12°C° 0.1 mm 5 m/s 765 mmHg 71%
    05:00 +11°C° 0.1 mm 6 m/s 765 mmHg 72%
    06:00 +11°C° 0.1 mm 6 m/s 765 mmHg 73%
    07:00 +11°C° 0.1 mm 6 m/s 765 mmHg 72%
    08:00 +13°C° 0.1 mm 5 m/s 766 mmHg 71%
    09:00 +13°C° 0.1 mm 5 m/s 766 mmHg 71%
    10:00 +13°C° 0.1 mm 5 m/s 766 mmHg 70%
    11:00 +14°C° 0.1 mm 5 m/s 766 mmHg 69%
    12:00 +14°C° 0.1 mm 5 m/s 766 mmHg 68%
    13:00 +14°C° 0.1 mm 5 m/s 766 mmHg 68%
    14:00 +14°C° 0.1 mm 5 m/s 765 mmHg 68%
    15:00 +14°C° 0.1 mm 5 m/s 765 mmHg 68%
    16:00 +13°C° 0 mm 5 m/s 765 mmHg 70%
    17:00 +13°C° 0 mm 4 m/s 765 mmHg 73%
    18:00 +12°C° 0 mm 4 m/s 766 mmHg 75%
    19:00 +12°C° 0 mm 4 m/s 766 mmHg 76%
    20:00 +12°C° 0 mm 4 m/s 766 mmHg 76%
    21:00 +12°C° 0 mm 4 m/s 767 mmHg 76%
    22:00 +12°C° 0.1 mm 4 m/s 767 mmHg 77%
    23:00 +12°C° 0.1 mm 4 m/s 767 mmHg 77%

    9 Iunie, Marţi

    Timp Temperatura Precipitaţii Vânt Presiune Umiditate
    00:00 +12°C° 0.1 mm 4 m/s 767 mmHg 77%
    01:00 +12°C° 0.1 mm 4 m/s 767 mmHg 78%
    02:00 +12°C° 0.1 mm 4 m/s 767 mmHg 78%
    03:00 +12°C° 0.1 mm 4 m/s 767 mmHg 78%
    04:00 +12°C° 0.2 mm 5 m/s 767 mmHg 79%
    05:00 +12°C° 0.2 mm 5 m/s 767 mmHg 79%
    06:00 +12°C° 0.2 mm 5 m/s 767 mmHg 80%
    07:00 +12°C° 0.1 mm 5 m/s 767 mmHg 79%
    08:00 +13°C° 0.1 mm 5 m/s 767 mmHg 78%
    09:00 +13°C° 0.1 mm 5 m/s 768 mmHg 77%
    10:00 +13°C° 0.1 mm 5 m/s 767 mmHg 74%
    11:00 +14°C° 0.1 mm 5 m/s 767 mmHg 72%
    12:00 +14°C° 0.1 mm 5 m/s 767 mmHg 69%
    13:00 +14°C° 0.1 mm 5 m/s 767 mmHg 68%
    14:00 +14°C° 0.1 mm 5 m/s 767 mmHg 66%
    15:00 +14°C° 0.1 mm 5 m/s 766 mmHg 65%
    16:00 +14°C° 0 mm 5 m/s 766 mmHg 68%
    17:00 +13°C° 0 mm 5 m/s 766 mmHg 71%
    18:00 +12°C° 0 mm 5 m/s 766 mmHg 74%
    19:00 +12°C° 0 mm 4 m/s 767 mmHg 75%
    20:00 +12°C° 0 mm 4 m/s 767 mmHg 75%
    21:00 +12°C° 0 mm 4 m/s 767 mmHg 76%
    22:00 +12°C° 0.1 mm 4 m/s 767 mmHg 77%
    23:00 +12°C° 0.1 mm 4 m/s 767 mmHg 77%

    10 Iunie, Miercuri

    Timp Temperatura Precipitaţii Vânt Presiune Umiditate
    00:00 +12°C° 0.1 mm 4 m/s 767 mmHg 78%
    01:00 +12°C° 0.1 mm 4 m/s 767 mmHg 79%
    02:00 +11°C° 0.1 mm 4 m/s 767 mmHg 79%
    03:00 +11°C° 0.1 mm 4 m/s 767 mmHg 79%
    04:00 +11°C° 0.2 mm 3 m/s 767 mmHg 79%
    05:00 +11°C° 0.2 mm 3 m/s 767 mmHg 79%
    06:00 +11°C° 0.2 mm 3 m/s 767 mmHg 80%
    07:00 +11°C° 0.1 mm 3 m/s 768 mmHg 79%
    08:00 +11°C° 0.1 mm 3 m/s 768 mmHg 79%
    09:00 +12°C° 0.1 mm 3 m/s 768 mmHg 79%
    10:00 +12°C° 0 mm 3 m/s 768 mmHg 75%
    11:00 +13°C° 0 mm 3 m/s 768 mmHg 72%
    12:00 +14°C° 0 mm 4 m/s 768 mmHg 69%
    13:00 +14°C° 0.1 mm 4 m/s 768 mmHg 69%
    14:00 +14°C° 0.1 mm 5 m/s 767 mmHg 69%
    15:00 +14°C° 0.1 mm 5 m/s 767 mmHg 70%
    16:00 +13°C° 0 mm 5 m/s 767 mmHg 72%
    17:00 +13°C° 0 mm 5 m/s 767 mmHg 74%
    18:00 +12°C° 0 mm 5 m/s 768 mmHg 76%
    19:00 +12°C° 0 mm 5 m/s 768 mmHg 77%
    20:00 +12°C° 0 mm 4 m/s 768 mmHg 78%
    21:00 +11°C° 0 mm 4 m/s 769 mmHg 79%
    22:00 +11°C° 0 mm 3 m/s 769 mmHg 78%
    23:00 +11°C° 0 mm 3 m/s 769 mmHg 77%
    Arată mai mult